Regional Weather Roundup
Issued by NWS

Home | Current Version | Previous Version | Text Only | Print | Product List | Glossary On
Versions: 1 2 3 4 5 6 7 8 9 10 11 12 13 14 15 16 17 18 19 20 21 22 23 24 25 26 27 28 29 30 31 32 33 34 35 36 37 38 39 40 41 42 43 44 45 46 47 48 49 50
000
ASUS45 KBOI 280510
RWRID

IDAHO REGIONAL WEATHER ROUNDUP
NATIONAL WEATHER SERVICE BOISE ID
1100 PM MDT SAT AUG 27 2016

NOTE: "FAIR" INDICATES FEW OR NO CLOUDS BELOW 12000 FEET
WITH NO SIGNIFICANT WEATHER AND/OR OBSTRUCTIONS TO VISIBILITY

IDZ012-014-280600-
SOUTHWEST IDAHO


CITY           SKY/WX    TMP DP  RH WIND       PRES   REMARKS
BOISE          CLEAR     75  27  17 SE10      29.87R
CALDWELL       CLEAR     70  45  40 SE6       29.84S
MOUNTAIN HOME  CLEAR     68  31  25 E5        29.89R
$$

IDZ016-017-280600-
SOUTHCENTRAL IDAHO


CITY           SKY/WX    TMP DP  RH WIND       PRES   REMARKS
BURLEY         CLEAR     59  43  55 S8        29.98R
JEROME         CLEAR     64  36  35 E7        29.98S
TWIN FALLS     CLEAR     62  35  36 S8        29.99R
$$

IDZ019>023-280600-
SOUTHEAST IDAHO


CITY           SKY/WX    TMP DP  RH WIND       PRES   REMARKS
IDAHO FALLS    CLEAR     66  30  26 SW7       30.01R
POCATELLO      CLEAR     69  28  21 S10       30.00S
REXBURG        CLEAR     69  28  21 S14       30.01R
$$

IDZ006-010-011-018-031-032-280600-
CENTRAL IDAHO MOUNTAINS


CITY           SKY/WX    TMP DP  RH WIND       PRES   REMARKS
MCCALL         PTCLDY    60  35  39 CALM      30.02R
HAILEY         CLEAR     57  32  38 NW12      30.07R
STANLEY          N/A     49  24  37 SW5       30.15R
SALMON         PTCLDY    70  34  26 CALM      29.90R
CHALLIS        CLOUDY    63  24  22 SW6       30.01R HAZE
$$

IDZ002-004-006-007-026-280600-
NORTHERN IDAHO


CITY           SKY/WX    TMP DP  RH WIND       PRES   REMARKS
LEWISTON       CLOUDY    82  47  29 W14G23    29.79R
LOWELL           N/A     68  51  54 NW5       29.82R
COEUR D`ALENE  PTCLDY    68  45  42 NE8       29.78R
MULLAN PASS    MOCLDY    58  37  45 W7        29.98R
$$



USA.gov is the U.S. government's official web portal to all federal, state and local government web resources and services.